FW5431 Weather Reports


Display with metric or nautical units.
time (UTC)temp
F
wind
direction
speed
MPH
gust
MPH
rain 1hr
in
rain 24hr
in
rain mn
in
humidity
%
barometer
mb
20260905054603 57 105 0.0 0.0 0.01 0.04 0.02 100 1015.2
20260905053109 57 100 0.0 0.0 0.01 0.04 0.02 100 1015.3
20260905051558 57 100 0.0 2.0 0.01 0.04 0.02 100 1015.5
20260905050058 58 101 0.0 5.0 0.01 0.04 0.02 100 1015.7
20260905044604 58 257 1.0 3.0 0.00 0.03 0.01 100 1016.0
20260905043109 58 169 1.0 2.0 0.00 0.03 0.01 100 1015.6
20260905041557 58 169 0.0 0.0 0.00 0.03 0.01 100 1015.7
20260905040057 59 169 0.0 0.0 0.01 0.03 0.01 100 1016.0
20260905034601 59 169 0.0 0.0 0.01 0.03 0.01 100 1016.1
20260905033057 59 171 0.0 3.0 0.01 0.03 0.01 100 1016.4
20260905031557 59 105 1.0 3.0 0.01 0.03 0.01 100 1016.1
20260905030100 60 141 0.0 2.0 0.00 0.02 0.00 100 1016.3
20260905030003 60 141 0.0 2.0 0.00 0.02 0.00 100 1016.3
20260905024558 60 271 0.0 3.0 0.00 0.02 0.02 100 1016.4
20260905023058 60 89 1.0 3.0 0.00 0.02 0.02 100 1016.0
20260905021558 60 136 1.0 3.0 0.00 0.02 0.02 100 1015.9
20260905020057 60 167 1.0 2.0 0.00 0.02 0.02 100 1016.7
20260905014557 60 168 0.0 2.0 0.00 0.02 0.02 100 1016.7
20260905013058 60 167 0.0 2.0 0.00 0.02 0.02 100 1016.7
20260905011616 60 168 1.0 3.0 0.00 0.02 0.02 100 1016.5
20260905010058 60 127 1.0 4.0 0.00 0.02 0.02 100 1016.5
20260905010000 60 127 1.0 4.0 0.00 0.02 0.02 100 1016.6
20260905004557 60 123 3.0 7.0 0.00 0.02 0.02 100 1016.4
20260905003059 61 117 4.0 6.0 0.00 0.02 0.02 100 1016.3
20260905001609 61 124 2.0 5.0 0.00 0.02 0.02 100 1016.2
20260904234557 61 110 1.0 2.0 0.01 0.02 0.02 100 1015.5
20260904233107 62 110 1.0 3.0 0.01 0.02 0.02 100 1015.3
20260904231557 62 110 0.0 0.0 0.01 0.02 0.02 100 1015.2
20260904230057 62 110 0.0 1.0 0.01 0.02 0.02 100 1015.1
20260904230002 62 110 0.0 2.0 0.01 0.02 0.02 100 1015.1
20260904224557 62 110 0.0 2.0 0.00 0.01 0.01 100 1014.7
20260904223058 62 110 1.0 3.0 0.00 0.01 0.01 100 1014.9
20260904221558 62 110 2.0 3.0 0.00 0.01 0.01 100 1014.8
20260904220108 62 87 1.0 3.0 0.00 0.01 0.01 100 1014.9
20260904214558 62 89 0.0 2.0 0.00 0.01 0.01 100 1014.8
20260904213057 63 89 0.0 3.0 0.00 0.01 0.01 100 1014.4
20260904211558 63 88 0.0 2.0 0.00 0.01 0.01 100 1014.5
20260904210100 63 55 1.0 5.0 0.00 0.01 0.01 100 1014.3
20260904210001 63 54 1.0 5.0 0.00 0.01 0.01 100 1014.4
20260904204557 63 55 3.0 6.0 0.00 0.01 0.01 100 1013.9
20260904203057 64 72 3.0 5.0 0.00 0.01 0.01 100 1013.8
20260904201613 64 46 2.0 6.0 0.00 0.01 0.01 100 1013.7
20260904200059 64 22 0.0 6.0 0.00 0.01 0.01 100 1013.7
20260904194558 64 32 1.0 4.0 0.01 0.01 0.01 100 1013.3
20260904193102 64 21 1.0 3.0 0.01 0.01 0.01 100 1013.6
20260904191557 64 14 0.0 4.0 0.01 0.01 0.01 100 1013.1
20260904190057 65 48 1.0 6.0 0.01 0.01 0.01 100 1012.6
20260904184557 65 343 1.0 2.0 0.00 0.00 0.00 100 1012.7
20260904183102 66 70 2.0 7.0 0.00 0.00 0.00 100 1012.7
20260904181600 66 100 4.0 9.0 0.00 0.00 0.00 100 1012.2
20260904180104 67 82 3.0 10.0 0.00 0.00 0.00 100 1012.1
20260904174607 68 71 3.0 8.0 0.00 0.00 0.00 100 1011.1
20260904173117 68 87 3.0 8.0 0.00 0.00 0.00 100 1011.7
20260904171605 68 127 6.0 10.0 0.00 0.00 0.00 100 1011.9
20260904170106 69 39 1.0 7.0 0.00 0.00 0.00 100 1012.6
20260904170002 69 39 2.0 7.0 0.00 0.00 0.00 100 1012.5
20260904164600 69 77 5.0 13.0 0.00 0.00 0.00 100 1011.9
20260904163057 71 134 2.0 7.0 0.00 0.00 0.00 100 1012.0
20260904161601 71 39 2.0 8.0 0.00 0.00 0.00 100 1012.3
20260904160057 71 13 4.0 9.0 0.00 0.00 0.00 100 1012.4
20260904160001 71 25 4.0 9.0 0.00 0.00 0.00 100 1012.4
20260904154557 72 26 4.0 16.0 0.00 0.00 0.00 100 1012.3
20260904153105 71 353 5.0 10.0 0.00 0.00 0.00 100 1012.2
20260904151557 71 359 6.0 10.0 0.00 0.00 0.00 100 1012.4
20260904144613 71 72 5.0 9.0 0.00 0.00 0.00 100 1013.3
20260904143058 71 4 3.0 8.0 0.00 0.00 0.00 100 1013.2
20260904141602 70 32 5.0 10.0 0.00 0.00 0.00 100 1013.6
20260904140057 68 67 3.0 8.0 0.00 0.00 0.00 100 1014.0
20260904134605 67 39 3.0 7.0 0.00 0.00 0.00 100 1014.1
20260904133057 66 353 2.0 5.0 0.00 0.00 0.00 100 1014.2
20260904131558 65 56 2.0 7.0 0.00 0.00 0.00 100 1014.4
20260904130057 64 86 1.0 5.0 0.00 0.00 0.00 100 1014.4
20260904124603 63 13 3.0 5.0 0.00 0.00 0.00 100 1014.7
20260904123057 62 34 3.0 5.0 0.00 0.00 0.00 100 1014.4
20260904121557 61 56 1.0 4.0 0.00 0.00 0.00 100 1014.8
20260904120108 60 1 0.0 2.0 0.00 0.00 0.00 100 1014.6
20260904114557 60 249 0.0 2.0 0.00 0.00 0.00 100 1014.7
20260904113101 60 247 0.0 3.0 0.00 0.00 0.00 100 1014.5
20260904111610 59 259 1.0 3.0 0.00 0.00 0.00 100 1014.5
20260904110059 59 47 1.0 2.0 0.00 0.00 0.00 100 1014.3
20260904104558 58 49 0.0 0.0 0.00 0.00 0.00 100 1014.0
20260904103057 58 47 0.0 0.0 0.00 0.00 0.00 100 1014.0
20260904101600 58 48 0.0 0.0 0.00 0.00 0.00 100 1014.0
20260904094610 57 48 0.0 0.0 0.00 0.00 0.00 100 1013.6
20260904093101 57 48 0.0 0.0 0.00 0.00 0.00 100 1013.5
20260904091558 57 48 0.0 0.0 0.00 0.00 0.00 100 1012.9
20260904091502 57 48 0.0 0.0 0.00 0.00 0.00 100 1012.9
20260904090057 57 48 0.0 0.0 0.00 0.00 0.00 100 1012.6
20260904084557 57 48 0.0 0.0 0.00 0.00 0.00 100 1012.3
20260904083058 57 48 0.0 0.0 0.00 0.00 0.00 100 1012.0
20260904081636 57 48 0.0 0.0 0.00 0.00 0.00 100 1011.9
20260904080057 57 48 0.0 0.0 0.00 0.00 0.00 100 1011.8
20260904074608 57 48 0.0 0.0 0.00 0.00 0.00 100 1011.6
20260904073105 58 48 0.0 0.0 0.00 0.00 0.00 100 1011.4
20260904071559 58 48 0.0 0.0 0.00 0.00 0.00 100 1011.3
20260904070109 58 48 0.0 0.0 0.00 0.00 0.00 100 1011.4
20260904064557 58 48 0.0 0.0 0.00 0.00 0.00 100 1011.4
20260904063100 58 48 0.0 0.0 0.00 0.00 0.00 100 1011.4
20260904061604 58 48 0.0 0.0 0.00 0.00 0.00 100 1011.4
20260904060057 58 48 0.0 0.0 0.00 0.00 0.00 100 1011.5